Appleton, MN

10:47 AM CDT on September 28, 2016 (GMT -0500)
Appleton Municipal

Weather History for KAQP - November, 2013

Change the Weather History Date:

Friday, November 1, 2013

  Actual Average Record
Temperature  
Mean Temperature 42 °F -  
Max Temperature 51 °F 45 °F 69 °F (2000)
Min Temperature 33 °F 28 °F 10 °F (2006)
Degree Days  
Heating Degree Days 23    
Moisture  
Dew Point 37 °F    
Average Humidity 82    
Maximum Humidity 93    
Minimum Humidity 62    
Precipitation  
Precipitation 0.01 in - - ()
Sea Level Pressure  
Sea Level Pressure 29.68 in    
Wind  
Wind Speed 10 mph (WNW)    
Max Wind Speed 22 mph    
Max Gust Speed 28 mph    
Visibility 9 miles    
Events Rain    
Averages and records for this station are not official NWS values.
T = Trace of Precipitation, MM = Missing Value Source: NWS Daily Summary

Daily Weather History Graph

Daily Weather History Graph

Search for Another Location

Airport or City:

Trip Planner

Search our weather history database for the weather conditions in past years. The results will help you decide how hot, cold, wet, or windy it might be!

Date:

Astronomy

Nov. 01, 2013 Rise Set
Actual Time 8:03 AM CDT 6:11 PM CDT
Civil Twilight 7:32 AM CDT 6:41 PM CDT
Nautical Twilight 6:57 AM CDT 7:16 PM CDT
Astronomical Twilight 6:23 AM CDT 7:51 PM CDT
Moon 5:51 AM CDT (11/1) 5:08 PM CDT (11/1)
Length of Visible Light 11h 09m
Length of Day
10h 07m
Waning Crescent, 4% of the Moon is Illuminated
Nov 1
Waning Crescent
Nov 3
New
Nov 9
First Quarter
Nov 17
Full
Nov 25
Last Quarter

Hourly Weather History & Observations

Time (CDT) Temp. Windchill Dew Point Humidity Pressure Visibility Wind Dir Wind Speed Gust Speed Precip Events Conditions
12:13 AM 39.2 °F 33.6 °F 35.6 °F 87% 29.48 in 7.0 mi WNW 8.1 mph - N/A   Scattered Clouds
12:33 AM 37.4 °F 31.4 °F 35.6 °F 93% 29.48 in 5.0 mi WNW 8.1 mph - N/A   Clear
12:53 AM 37.4 °F 30.8 °F 35.6 °F 93% 29.48 in 5.0 mi WNW 9.2 mph - N/A   Clear
1:13 AM 39.2 °F 32.0 °F 35.6 °F 87% 29.49 in 7.0 mi NW 11.5 mph - N/A   Scattered Clouds
1:33 AM 39.2 °F 33.0 °F 35.6 °F 87% 29.50 in 10.0 mi NW 9.2 mph - N/A   Mostly Cloudy
1:53 AM 39.2 °F 32.0 °F 35.6 °F 87% 29.50 in 10.0 mi NW 11.5 mph - N/A   Overcast
2:13 AM 39.2 °F 33.0 °F 35.6 °F 87% 29.51 in 10.0 mi WNW 9.2 mph - N/A   Overcast
2:34 AM 39.2 °F 33.0 °F 35.6 °F 87% 29.51 in 10.0 mi WNW 9.2 mph - N/A   Overcast
2:54 AM 39.2 °F 33.0 °F 35.6 °F 87% 29.52 in 10.0 mi WNW 9.2 mph - N/A   Overcast
3:13 AM 39.2 °F 33.0 °F 35.6 °F 87% 29.52 in 10.0 mi WNW 9.2 mph - N/A   Overcast
3:33 AM 39.2 °F 33.0 °F 35.6 °F 87% 29.54 in 10.0 mi WNW 9.2 mph - N/A   Overcast
3:53 AM 37.4 °F 31.4 °F 33.8 °F 87% 29.54 in 10.0 mi WNW 8.1 mph - N/A   Scattered Clouds
4:13 AM 35.6 °F 29.9 °F 33.8 °F 93% 29.54 in 10.0 mi WNW 6.9 mph - N/A   Clear
4:33 AM 35.6 °F 30.7 °F 33.8 °F 93% 29.55 in 10.0 mi West 5.8 mph - N/A   Clear
4:53 AM 35.6 °F 29.2 °F 33.8 °F 93% 29.56 in 10.0 mi WNW 8.1 mph - N/A   Clear
5:13 AM 35.6 °F 29.9 °F 33.8 °F 93% 29.56 in 10.0 mi WNW 6.9 mph - N/A   Clear
5:33 AM 35.6 °F 29.9 °F 33.8 °F 93% 29.57 in 10.0 mi WNW 6.9 mph - N/A   Clear
5:53 AM 35.6 °F 31.7 °F 32.0 °F 87% 29.57 in 10.0 mi WSW 4.6 mph - N/A   Clear
6:14 AM 33.8 °F 30.8 °F 30.2 °F 87% 29.58 in 10.0 mi WSW 3.5 mph - N/A   Clear
6:33 AM 33.8 °F - 30.2 °F 87% 29.58 in 7.0 mi Calm Calm - N/A   Clear
6:53 AM 33.8 °F 29.6 °F 30.2 °F 87% 29.58 in 7.0 mi WSW 4.6 mph - N/A   Clear
7:13 AM 33.8 °F 28.6 °F 30.2 °F 87% 29.59 in 7.0 mi West 5.8 mph - N/A   Clear
7:33 AM 33.8 °F 28.6 °F 32.0 °F 93% 29.60 in 7.0 mi West 5.8 mph - N/A   Clear
7:53 AM 33.8 °F 28.6 °F 30.2 °F 87% 29.59 in 7.0 mi West 5.8 mph - N/A   Clear
8:13 AM 33.8 °F 27.7 °F 30.2 °F 87% 29.60 in 7.0 mi WSW 6.9 mph - N/A   Scattered Clouds
8:33 AM 33.8 °F 27.7 °F 32.0 °F 93% 29.61 in 5.0 mi West 6.9 mph - N/A   Clear
8:53 AM 35.6 °F 29.9 °F 33.8 °F 93% 29.62 in 5.0 mi West 6.9 mph - N/A   Clear
9:13 AM 37.4 °F 32.1 °F 35.6 °F 93% 29.62 in 7.0 mi West 6.9 mph - N/A   Clear
9:33 AM 37.4 °F 31.4 °F 33.8 °F 87% 29.62 in 7.0 mi West 8.1 mph - N/A   Clear
9:53 AM 39.2 °F 33.6 °F 35.6 °F 87% 29.62 in 7.0 mi West 8.1 mph - N/A   Clear
10:13 AM 41.0 °F 34.3 °F 35.6 °F 81% 29.63 in 10.0 mi West 11.5 mph - N/A   Clear
10:34 AM 44.6 °F 37.8 °F 37.4 °F 76% 29.63 in 10.0 mi WNW 15.0 mph 19.6 mph N/A   Clear
10:53 AM 44.6 °F 37.4 °F 37.4 °F 76% 29.63 in 10.0 mi WNW 16.1 mph 23.0 mph N/A   Clear
11:14 AM 48.2 °F - 37.4 °F 66% 29.63 in 10.0 mi NW 13.8 mph 23.0 mph N/A   Clear
11:34 AM 48.2 °F - 37.4 °F 66% 29.63 in 10.0 mi WNW 16.1 mph - N/A   Clear
11:54 AM 48.2 °F - 37.4 °F 66% 29.64 in 10.0 mi NW 21.9 mph 26.5 mph N/A   Clear
12:13 PM 51.8 °F - 39.2 °F 62% 29.65 in 10.0 mi NW 19.6 mph 24.2 mph 0.01 in   Scattered Clouds
12:33 PM 48.2 °F - 39.2 °F 71% 29.65 in 10.0 mi NW 16.1 mph 21.9 mph 0.01 in   Mostly Cloudy
12:54 PM 48.2 °F - 37.4 °F 66% 29.67 in 10.0 mi NW 19.6 mph 25.3 mph 0.01 in   Overcast
1:13 PM 48.2 °F - 37.4 °F 66% 29.67 in 10.0 mi NW 19.6 mph 27.6 mph N/A   Overcast
1:34 PM 48.2 °F - 37.4 °F 66% 29.67 in 10.0 mi WNW 17.3 mph - N/A   Overcast
1:54 PM 48.2 °F - 39.2 °F 71% 29.67 in 10.0 mi NW 17.3 mph 23.0 mph N/A   Overcast
2:14 PM 48.2 °F - 39.2 °F 71% 29.68 in 10.0 mi WNW 19.6 mph - N/A   Unknown
2:33 PM 48.2 °F - 39.2 °F 71% 29.69 in 10.0 mi NW 16.1 mph - N/A   Overcast
2:53 PM 46.4 °F 39.2 °F 39.2 °F 76% 29.70 in 10.0 mi NW 18.4 mph - N/A   Overcast
3:13 PM 46.4 °F 39.8 °F 39.2 °F 76% 29.70 in 10.0 mi NW 16.1 mph 23.0 mph N/A   Overcast
3:33 PM 48.2 °F - 39.2 °F 71% 29.71 in 10.0 mi NW 17.3 mph 23.0 mph N/A   Overcast
3:53 PM 46.4 °F 39.5 °F 39.2 °F 76% 29.72 in 10.0 mi NW 17.3 mph - N/A   Overcast
4:13 PM 46.4 °F 39.5 °F 39.2 °F 76% 29.73 in 10.0 mi WNW 17.3 mph - N/A   Overcast
4:33 PM 46.4 °F 39.2 °F 39.2 °F 76% 29.74 in 10.0 mi NW 18.4 mph - N/A   Overcast
4:53 PM 46.4 °F 40.7 °F 39.2 °F 76% 29.75 in 10.0 mi NW 12.7 mph - N/A   Overcast
5:13 PM 44.6 °F 38.8 °F 39.2 °F 81% 29.76 in 10.0 mi NW 11.5 mph - N/A   Overcast
5:34 PM 44.6 °F 38.4 °F 39.2 °F 81% 29.78 in 10.0 mi NW 12.7 mph - N/A   Overcast
5:53 PM 44.6 °F 38.4 °F 39.2 °F 81% 29.78 in 10.0 mi NW 12.7 mph - N/A   Overcast
6:14 PM 44.6 °F 40.2 °F 39.2 °F 81% 29.79 in 10.0 mi NW 8.1 mph - N/A   Overcast
6:34 PM 44.6 °F 40.2 °F 39.2 °F 81% 29.81 in 10.0 mi NW 8.1 mph - N/A   Overcast
6:53 PM 44.6 °F 39.7 °F 39.2 °F 81% 29.82 in 10.0 mi NW 9.2 mph - N/A   Overcast
7:13 PM 44.6 °F 38.8 °F 39.2 °F 81% 29.83 in 10.0 mi NW 11.5 mph - N/A   Mostly Cloudy
7:33 PM 44.6 °F 39.2 °F 39.2 °F 81% 29.84 in 10.0 mi NW 10.4 mph - N/A   Mostly Cloudy
7:54 PM 44.6 °F 40.2 °F 39.2 °F 81% 29.84 in 10.0 mi WNW 8.1 mph - N/A   Mostly Cloudy
8:13 PM 44.6 °F 39.2 °F 39.2 °F 81% 29.85 in 10.0 mi WNW 10.4 mph - N/A   Overcast
8:33 PM 44.6 °F 38.8 °F 39.2 °F 81% 29.85 in 10.0 mi NW 11.5 mph - N/A   Overcast
8:53 PM 44.6 °F 38.8 °F 39.2 °F 81% 29.86 in 10.0 mi NW 11.5 mph - N/A   Overcast
9:13 PM 44.6 °F 38.8 °F 39.2 °F 81% 29.87 in 10.0 mi NW 11.5 mph - N/A Rain Light Rain
9:33 PM 44.6 °F 38.4 °F 39.2 °F 81% 29.88 in 10.0 mi NW 12.7 mph 19.6 mph N/A   Overcast
9:53 PM 44.6 °F 38.4 °F 39.2 °F 81% 29.88 in 10.0 mi NW 12.7 mph 19.6 mph N/A   Overcast
10:13 PM 44.6 °F 38.8 °F 39.2 °F 81% 29.90 in 10.0 mi NW 11.5 mph 17.3 mph N/A   Overcast
10:33 PM 44.6 °F 37.8 °F 37.4 °F 76% 29.91 in 10.0 mi NW 15.0 mph 19.6 mph N/A   Overcast
10:53 PM 42.8 °F 35.8 °F 37.4 °F 81% 29.91 in 10.0 mi NW 13.8 mph - N/A   Overcast
11:13 PM 42.8 °F 35.8 °F 37.4 °F 81% 29.92 in 10.0 mi NW 13.8 mph 18.4 mph N/A   Overcast
11:33 PM 42.8 °F 35.4 °F 37.4 °F 81% 29.92 in 10.0 mi NW 15.0 mph - N/A   Overcast
11:53 PM 42.8 °F 35.8 °F 37.4 °F 81% 29.93 in 10.0 mi NW 13.8 mph - N/A   Overcast